Location: Pradons
(44.4746°N, 4.3578°E)
Time: 04:01:39
(UTC+00:00)

STARLINK-1215 - Pass Details

Date: 09 April 2020
Orbit: 379 x 381 km, 53.0° (Epoch: 02 June)

Event Time Altitude Azimuth Distance (km) Brightness Sun altitude
Rises 19:42:15 0° 304° (NW) 2,260 8.6 -14.6°
Reaches altitude 10° 19:44:19 10° 307° (NW) 1,404 7.1 -14.9°
Maximum altitude 19:47:27 68° 31° (NNE) 415 2.9 -15.4°
Enters shadow 19:48:23 40° 101° (E) 576 3.2 -15.5°
